Location: Tenerife
(28.2947°N, 16.5650°W)
Time: 04:35:47
(UTC+01:00)

OTV 5 (USA 277) - Visible Passes

Search period start: 19 July 2018 00:00
Search period end: 29 July 2018 00:00
Orbit: 312 x 321 km, 54.5° (Epoch: 05 July)

Date Brightness Start Highest point End Pass type
(mag) Time Alt. Az. Time Alt. Az. Time Alt. Az.
24 Jul ? 06:54:05 10° SSW 06:56:33 33° SE 06:59:02 10° ENE visible
26 Jul ? 05:50:54 17° SE 05:51:16 17° SE 05:53:09 10° E visible
27 Jul ? 06:05:13 60° S 06:05:35 75° SE 06:08:16 10° NE visible
28 Jul ? 06:19:27 22° WNW 06:20:02 24° NW 06:22:20 10° NNE visible
